Find Starlink 4139

NORAD ID: 52879 Int'l Des: 2022-062 Owner: SPXS Country: US Constellation: starlink operational
LEOCIRCULAR

Live Position

Loading 3D Globe...

About Starlink 4139

Description loading...

Upcoming Passes

Passes for default location (London). Set your location on the main map for personalized predictions.

Altitude History

Loading altitude history...

Two-Line Element Set

1 52879U 22062BB 26107.00190790 .00000404 00000-0 43447-4 0 9999
2 52879 53.2185 202.1273 0001168 98.6024 261.5101 15.08839100211857
Epoch: Apr 17, 2026 • Age: 15 hours

Current Status

Altitude 542.9 km
Velocity 7.60 km/s
Sub-Earth Point 40.49°N, 174.2°E
Launch Date Jun 17, 2022
Age 3.8 years
Type internet

Technical Details

Classification Payload
Mass 297.00 kg
Dry Mass 275.00 kg
Total Mass 297.00 kg
Length 0.20 m
Diameter 2.80 m
Span 9.00 m
Shape Box + pan
Manufacturer SPXS
Bus Type Starlink
Phase Status In Orbit
Owner/State SPXS/US

Most Searched